"Pseudo-MPEC" for P21Df3s

Created 2023 Jan 29 15:22:22 UT using Find_Orb

Click here for an explanation of pseudo-MPECs

 
 Astrometry: 
     P21Df3s* C2023 01 24j,h5AstrometryyeK+IuD#?Y=5t?($HYA5en'xHq+j-^UXCY-h\LF52
     P21Df3s  C2023 01 24GTM!CGAL%i+FXKo_I=V.-cmcv6v)redacted;$20%f]'d^click6F52
     P21Df3s  C2023 01 24ckucIFXbpuX)\KFhereXbBa@forTqexplanationFu.'_F)OcN$'F52

Station data:
(F52) Pan-STARRS 2, Haleakala  (N20.707382 W156.255910)  US/Hawaii.
   Observers J. Bulger, T. Dukes, T. Lowe, A. Schultz, M. Willman. Measurers
   K. Chambers, S. Chastel, T. de Boer, L. Denneau, J. Fairlamb, H.
   Flewelling, M. Huber, C.-C. Lin, E. Magnier, Y. Ramanjooloo, R. Wainscoat,
   R. Weryk. 1.8-m Ritchey-Chrétien + CCD.

Orbital elements:  P21Df3s
   Perihelion 2023 Jul 12.73279 +/- 40 TT = 17:35:13 (JD 2460138.23279)
Epoch 2023 Jan 25.0 TT = JDT 2459969.5   Earth MOID: 0.0238      AutoNEOCP
M 198.03354351 +/- 60               (J2000 ecliptic)
n   0.95989909 +/- 0.627            Peri.  347.01981 +/- 110
a   1.01777628 +/- 0.443            Node   303.17634 +/- 60
e   0.0261445 +/- 0.279             Incl.   14.42736 +/- 34
P   1.03/375.03d           H 24.86  G  0.15   U 12.4  SR
q 0.99116697 +/- 0.423    Q 1.04438559 +/- 17
From 3 observations 2023 Jan. 24 (47.1 min); mean residual 0".14
Residuals in arcseconds: 
230124 F52  .01-  .09-    230124 F52  .04+  .27+    230124 F52  .02-  .18-    

Ephemerides (geocentric):
Date (UTC) HH   RA             Dec           delta  r     elong  mag " sig PA
---- --------  ------------   ------------  ------ ------ -----  --- --------
2023 01 29 15  10 16 40.844   -20 24 48.84  .07840 1.0425 135.7 21.1  61d   4
2023 01 29 16  10 16 23.282   -20 31 43.88  .07842 1.0425 135.6 21.1  61d   4
2023 01 29 17  10 16 05.699   -20 38 38.44  .07845 1.0424 135.6 21.1  61d   4
2023 01 29 18  10 15 48.094   -20 45 32.51  .07847 1.0424 135.6 21.1  61d   4
2023 01 29 19  10 15 30.468   -20 52 26.09  .07849 1.0424 135.5 21.1  61d   4
2023 01 29 20  10 15 12.821   -20 59 19.16  .07852 1.0424 135.5 21.1  61d   4
2023 01 29 21  10 14 55.153   -21 06 11.74  .07854 1.0424 135.5 21.1  61d   5
2023 01 29 22  10 14 37.464   -21 13 03.80  .07857 1.0424 135.4 21.1  61d   5
2023 01 29 23  10 14 19.754   -21 19 55.35  .07859 1.0424 135.4 21.1  61d   5
2023 01 30 00  10 14 02.024   -21 26 46.38  .07862 1.0424 135.4 21.1  61d   5
2023 01 30 01  10 13 44.273   -21 33 36.88  .07865 1.0424 135.3 21.1  61d   5
2023 01 30 02  10 13 26.501   -21 40 26.85  .07868 1.0424 135.3 21.1  61d   5
2023 01 30 03  10 13 08.708   -21 47 16.28  .07870 1.0424 135.3 21.1  61d   5
2023 01 30 04  10 12 50.895   -21 54 05.17  .07873 1.0424 135.2 21.1  61d   5
2023 01 30 05  10 12 33.062   -22 00 53.52  .07876 1.0424 135.2 21.1  61d   5
2023 01 30 06  10 12 15.209   -22 07 41.31  .07879 1.0424 135.1 21.1  61d   5
2023 01 30 07  10 11 57.335   -22 14 28.55  .07882 1.0424 135.1 21.1  61d   5
2023 01 30 08  10 11 39.441   -22 21 15.23  .07885 1.0423 135.1 21.1  61d   5
2023 01 30 09  10 11 21.527   -22 28 01.34  .07888 1.0423 135.0 21.1  61d   5
2023 01 30 10  10 11 03.593   -22 34 46.87  .07891 1.0423 135.0 21.1  61d   5
2023 01 30 11  10 10 45.639   -22 41 31.83  .07894 1.0423 135.0 21.1  61d   5
2023 01 30 12  10 10 27.666   -22 48 16.21  .07897 1.0423 134.9 21.1  61d   5
2023 01 30 13  10 10 09.673   -22 55 00.00  .07901 1.0423 134.9 21.1  61d   5
2023 01 30 14  10 09 51.660   -23 01 43.20  .07904 1.0423 134.8 21.1  61d   5
2023 01 30 15  10 09 33.627   -23 08 25.81  .07907 1.0423 134.8 21.1  61d   5
2023 01 30 16  10 09 15.575   -23 15 07.81  .07910 1.0423 134.8 21.1  61d   6
2023 01 30 17  10 08 57.504   -23 21 49.21  .07914 1.0423 134.7 21.1  61d   6
2023 01 30 18  10 08 39.414   -23 28 30.00  .07917 1.0423 134.7 21.1  61d   6
2023 01 30 19  10 08 21.304   -23 35 10.17  .07921 1.0423 134.6 21.1  61d   6
2023 01 30 20  10 08 03.175   -23 41 49.72  .07924 1.0423 134.6 21.1  61d   6
2023 01 30 21  10 07 45.027   -23 48 28.65  .07928 1.0423 134.6 21.1  61d   6
2023 01 30 22  10 07 26.860   -23 55 06.95  .07932 1.0422 134.5 21.1  61d   6
2023 01 30 23  10 07 08.675   -24 01 44.61  .07935 1.0422 134.5 21.1  61d   6
2023 01 31 00  10 06 50.471   -24 08 21.64  .07939 1.0422 134.4 21.2  61d   6
2023 01 31 01  10 06 32.248   -24 14 58.02  .07943 1.0422 134.4 21.2  61d   6
2023 01 31 02  10 06 14.006   -24 21 33.76  .07946 1.0422 134.3 21.2  61d   6
2023 01 31 03  10 05 55.746   -24 28 08.85  .07950 1.0422 134.3 21.2  61d   6
2023 01 31 04  10 05 37.468   -24 34 43.28  .07954 1.0422 134.3 21.2  61d   6
2023 01 31 05  10 05 19.171   -24 41 17.05  .07958 1.0422 134.2 21.2  61d   6
2023 01 31 06  10 05 00.856   -24 47 50.16  .07962 1.0422 134.2 21.2  61d   6
2023 01 31 07  10 04 42.523   -24 54 22.60  .07966 1.0422 134.1 21.2  61d   6
2023 01 31 08  10 04 24.173   -25 00 54.36  .07970 1.0422 134.1 21.2  61d   6
2023 01 31 09  10 04 05.804   -25 07 25.45  .07974 1.0422 134.0 21.2  61d   6
2023 01 31 10  10 03 47.417   -25 13 55.86  .07978 1.0422 134.0 21.2  61d   6
2023 01 31 11  10 03 29.013   -25 20 25.58  .07982 1.0422 133.9 21.2  61d   6
2023 01 31 12  10 03 10.591   -25 26 54.61  .07987 1.0421 133.9 21.2  61d   6
2023 01 31 13  10 02 52.152   -25 33 22.95  .07991 1.0421 133.9 21.2  61d   6
2023 01 31 14  10 02 33.695   -25 39 50.59  .07995 1.0421 133.8 21.2  61d   6